TimeEDT,TemperatureF,Dew PointF,Humidity,Sea Level PressureIn,VisibilityMPH,Wind Direction,Wind SpeedMPH,Gust SpeedMPH,PrecipitationIn,Events,Conditions,WindDirDegrees,DateUTC
12:53 AM,48.0,44.1,86,30.06,10.0,Calm,Calm,-,N/A,,Clear,0,2013-09-23 04:53:00
1:53 AM,46.9,43.0,86,30.06,10.0,Calm,Calm,-,N/A,,Clear,0,2013-09-23 05:53:00
2:53 AM,45.0,44.1,97,30.07,10.0,North,3.5,-,N/A,,Clear,360,2013-09-23 06:53:00
3:53 AM,45.0,43.0,93,30.07,10.0,North,3.5,-,N/A,,Clear,360,2013-09-23 07:53:00
4:53 AM,43.0,42.1,97,30.08,10.0,NNE,4.6,-,N/A,,Clear,20,2013-09-23 08:53:00
5:53 AM,43.0,42.1,97,30.09,10.0,Calm,Calm,-,N/A,,Clear,0,2013-09-23 09:53:00
6:53 AM,43.0,42.1,97,30.10,10.0,Calm,Calm,-,N/A,,Clear,0,2013-09-23 10:53:00
7:53 AM,44.1,42.1,93,30.12,10.0,Calm,Calm,-,N/A,,Clear,0,2013-09-23 11:53:00
8:53 AM,50.0,46.9,89,30.14,10.0,Calm,Calm,-,N/A,,Clear,0,2013-09-23 12:53:00
9:53 AM,55.0,46.9,74,30.15,10.0,East,4.6,-,N/A,,Clear,80,2013-09-23 13:53:00
10:53 AM,59.0,43.0,55,30.16,10.0,NE,4.6,-,N/A,,Scattered Clouds,50,2013-09-23 14:53:00
11:53 AM,60.1,43.0,53,30.15,10.0,East,6.9,-,N/A,,Scattered Clouds,80,2013-09-23 15:53:00
12:53 PM,61.0,42.1,50,30.14,10.0,ENE,6.9,-,N/A,,Scattered Clouds,60,2013-09-23 16:53:00
1:53 PM,63.0,43.0,48,30.14,10.0,NE,8.1,-,N/A,,Scattered Clouds,40,2013-09-23 17:53:00
2:53 PM,62.1,44.1,52,30.12,10.0,East,4.6,-,N/A,,Partly Cloudy,80,2013-09-23 18:53:00
3:53 PM,64.0,44.1,48,30.11,10.0,NNE,4.6,-,N/A,,Clear,30,2013-09-23 19:53:00
4:53 PM,63.0,44.1,50,30.11,10.0,ENE,5.8,-,N/A,,Clear,70,2013-09-23 20:53:00
5:53 PM,63.0,44.1,50,30.10,10.0,NNE,6.9,-,N/A,,Clear,30,2013-09-23 21:53:00
6:53 PM,59.0,45.0,60,30.11,10.0,ENE,4.6,-,N/A,,Clear,70,2013-09-23 22:53:00
7:53 PM,54.0,45.0,72,30.11,10.0,ENE,3.5,-,N/A,,Clear,60,2013-09-23 23:53:00
8:53 PM,52.0,45.0,77,30.12,10.0,ENE,5.8,-,N/A,,Clear,70,2013-09-24 00:53:00
9:53 PM,51.1,45.0,80,30.12,10.0,ENE,4.6,-,N/A,,Clear,70,2013-09-24 01:53:00
10:53 PM,50.0,45.0,83,30.13,10.0,East,3.5,-,N/A,,Clear,80,2013-09-24 02:53:00
11:53 PM,48.9,45.0,86,30.13,10.0,Calm,Calm,-,N/A,,Clear,0,2013-09-24 03:53:00